TimeEDT,TemperatureF,Dew PointF,Humidity,Sea Level PressureIn,VisibilityMPH,Wind Direction,Wind SpeedMPH,Gust SpeedMPH,PrecipitationIn,Events,Conditions,WindDirDegrees,DateUTC
12:52 AM,70.0,66.9,90,30.12,10.0,Calm,Calm,-,N/A,,Clear,0,2012-08-04 04:52:00
1:52 AM,70.0,66.9,90,30.12,10.0,Calm,Calm,-,N/A,,Clear,0,2012-08-04 05:52:00
2:52 AM,68.0,66.9,96,30.14,7.0,Calm,Calm,-,N/A,,Clear,0,2012-08-04 06:52:00
3:52 AM,68.0,66.0,93,30.14,6.0,Calm,Calm,-,N/A,,Clear,0,2012-08-04 07:52:00
4:52 AM,68.0,66.0,93,30.15,7.0,Calm,Calm,-,N/A,,Scattered Clouds,0,2012-08-04 08:52:00
5:03 AM,68.0,66.2,94,30.16,6.0,Calm,Calm,-,N/A,,Mostly Cloudy,0,2012-08-04 09:03:00
5:38 AM,69.8,66.2,88,30.18,7.0,Calm,Calm,-,N/A,,Overcast,0,2012-08-04 09:38:00
5:52 AM,70.0,68.0,93,30.18,7.0,Calm,Calm,-,N/A,,Overcast,0,2012-08-04 09:52:00
6:52 AM,70.0,69.1,97,30.19,2.5,Calm,Calm,-,N/A,,Overcast,0,2012-08-04 10:52:00
6:59 AM,69.8,69.8,100,30.20,1.2,Calm,Calm,-,N/A,,Overcast,0,2012-08-04 10:59:00
7:44 AM,71.6,69.8,94,30.21,1.2,Calm,Calm,-,N/A,,Overcast,0,2012-08-04 11:44:00
7:48 AM,71.6,69.8,94,30.22,2.0,Calm,Calm,-,N/A,,Overcast,0,2012-08-04 11:48:00
7:52 AM,72.0,70.0,93,30.21,2.5,Calm,Calm,-,N/A,,Overcast,0,2012-08-04 11:52:00
8:34 AM,73.4,71.6,94,30.22,3.0,Calm,Calm,-,N/A,,Overcast,0,2012-08-04 12:34:00
8:52 AM,75.0,71.1,87,30.21,6.0,Calm,Calm,-,N/A,,Overcast,0,2012-08-04 12:52:00
9:11 AM,75.2,71.6,89,30.22,6.0,Calm,Calm,-,N/A,,Haze,0,2012-08-04 13:11:00
9:50 AM,78.8,71.6,78,30.22,7.0,Calm,Calm,-,N/A,,Scattered Clouds,0,2012-08-04 13:50:00
9:52 AM,78.1,72.0,81,30.21,7.0,SSW,4.6,-,N/A,,Partly Cloudy,210,2012-08-04 13:52:00
10:52 AM,82.0,73.0,74,30.20,9.0,South,4.6,-,N/A,,Clear,190,2012-08-04 14:52:00
11:52 AM,87.1,68.0,53,30.20,10.0,South,9.2,-,N/A,,Clear,190,2012-08-04 15:52:00
12:52 PM,89.1,64.9,45,30.19,10.0,South,12.7,-,N/A,,Clear,170,2012-08-04 16:52:00
1:52 PM,90.0,68.0,48,30.19,10.0,SSE,11.5,-,N/A,,Clear,160,2012-08-04 17:52:00
2:52 PM,91.0,69.1,48,30.17,10.0,South,9.2,-,N/A,,Clear,180,2012-08-04 18:52:00
3:52 PM,88.0,70.0,55,30.16,10.0,South,16.1,-,N/A,Thunderstorm,Clear,190,2012-08-04 19:52:00
4:20 PM,87.8,69.8,55,30.17,10.0,South,8.1,-,N/A,,Clear,180,2012-08-04 20:20:00
4:52 PM,86.0,71.1,61,30.16,10.0,Calm,Calm,-,N/A,,Clear,0,2012-08-04 20:52:00
5:07 PM,86.0,71.6,62,30.18,10.0,SSW,3.5,-,N/A,Thunderstorm,Partly Cloudy,210,2012-08-04 21:07:00
5:52 PM,78.1,69.1,74,30.19,10.0,NW,10.4,-,N/A,Thunderstorm,Thunderstorm,310,2012-08-04 21:52:00
6:40 PM,78.8,66.2,65,30.20,10.0,NNE,6.9,19.6,N/A,,Partly Cloudy,30,2012-08-04 22:40:00
6:52 PM,79.0,66.9,66,30.20,10.0,ENE,8.1,-,N/A,,Partly Cloudy,60,2012-08-04 22:52:00
6:59 PM,78.8,66.2,65,30.22,10.0,NE,8.1,-,N/A,Thunderstorm,Partly Cloudy,40,2012-08-04 22:59:00
7:27 PM,78.8,66.2,65,30.23,10.0,East,13.8,24.2,N/A,Thunderstorm,Scattered Clouds,80,2012-08-04 23:27:00
7:48 PM,75.2,66.2,73,30.23,10.0,East,4.6,-,N/A,,Mostly Cloudy,100,2012-08-04 23:48:00
7:52 PM,75.0,66.0,73,30.23,10.0,Calm,Calm,-,N/A,,Overcast,0,2012-08-04 23:52:00
8:52 PM,73.0,63.0,71,30.21,10.0,SSW,4.6,-,N/A,,Clear,200,2012-08-05 00:52:00
9:52 PM,71.1,64.0,78,30.21,10.0,Calm,Calm,-,N/A,,Clear,0,2012-08-05 01:52:00
10:52 PM,66.9,63.0,87,30.21,10.0,Calm,Calm,-,N/A,,Clear,0,2012-08-05 02:52:00
11:52 PM,66.0,64.0,93,30.21,10.0,Calm,Calm,-,N/A,,Scattered Clouds,0,2012-08-05 03:52:00